Location: Lavington
(51.2833°N, 1.9833°W)
Time: 20:19:33
(UTC+00:00)

COSMOS 2455 - Pass Details

Date: 01 June 2020
Orbit: 899 x 911 km, 67.1° (Epoch: 11 July)

Event Time Altitude Azimuth Distance (km) Brightness Sun altitude
Exits shadow 22:52:53 22° 169° (SSE) 1,889 3.9 -14.8°
Maximum altitude 22:56:13 39° 114° (ESE) 1,328 3.4 -14.9°
Drops below altitude 10° 23:01:45 10° 48° (NE) 2,601 5.6 -15.2°
Sets 23:04:24 0° 41° (NE) 3,548 6.4 -15.3°
